| time (UTC) | temp F | wind direction | speed knots | gust knots | rain 1hr in | rain 24hr in | rain mn in | humidity % | barometer mb |
| 20260507015019 | 47 | 26 | 0.9 | 2.6 | 0.00 | 0.66 | 0.03 | 94 | 1009.1 |
| 20260507014522 | 47 | 31 | 0.0 | 3.5 | 0.00 | 0.66 | 0.03 | 94 | 1009.1 |
| 20260507014022 | 47 | 15 | 0.9 | 5.2 | 0.00 | 0.66 | 0.03 | 94 | 1009.1 |
| 20260507013518 | 47 | 34 | 0.9 | 5.2 | 0.00 | 0.66 | 0.03 | 94 | 1009.1 |
| 20260507013018 | 47 | 24 | 0.9 | 3.5 | 0.00 | 0.66 | 0.03 | 94 | 1009.0 |
| 20260507012519 | 47 | 17 | 0.9 | 3.5 | 0.00 | 0.66 | 0.03 | 94 | 1009.1 |
| 20260507012017 | 47 | 16 | 0.9 | 3.5 | 0.00 | 0.66 | 0.03 | 94 | 1009.0 |
| 20260507011617 | 47 | 16 | 1.7 | 3.5 | 0.00 | 0.66 | 0.03 | 94 | 1008.9 |
| 20260507011015 | 47 | 5 | 1.7 | 5.2 | 0.00 | 0.66 | 0.03 | 94 | 1008.9 |
| 20260507010518 | 47 | 310 | 0.9 | 3.5 | 0.00 | 0.66 | 0.03 | 94 | 1008.9 |
| 20260507010028 | 47 | 11 | 1.7 | 3.5 | 0.00 | 0.66 | 0.03 | 94 | 1008.9 |
| 20260507005515 | 47 | 11 | 0.9 | 3.5 | 0.00 | 0.73 | 0.03 | 94 | 1009.0 |
| 20260507005021 | 47 | 9 | 0.0 | 3.5 | 0.00 | 0.73 | 0.03 | 94 | 1008.9 |
| 20260507004519 | 47 | 327 | 1.7 | 7.8 | 0.00 | 0.73 | 0.03 | 94 | 1008.9 |
| 20260507004013 | 47 | 19 | 2.6 | 7.8 | 0.00 | 0.73 | 0.03 | 94 | 1008.8 |
| 20260507003512 | 47 | 5 | 0.9 | 2.6 | 0.00 | 0.73 | 0.03 | 94 | 1008.8 |
| 20260507003012 | 47 | 318 | 0.0 | 2.6 | 0.00 | 0.73 | 0.03 | 94 | 1008.8 |
| 20260507002512 | 47 | 5 | 0.0 | 2.6 | 0.00 | 0.73 | 0.03 | 94 | 1008.7 |
| 20260507002011 | 47 | 317 | 0.0 | 2.6 | 0.00 | 0.73 | 0.03 | 94 | 1008.7 |
| 20260507001511 | 47 | 317 | 0.0 | 2.6 | 0.00 | 0.73 | 0.03 | 94 | 1008.6 |
| 20260507001009 | 47 | 290 | 0.9 | 2.6 | 0.01 | 0.73 | 0.03 | 94 | 1008.6 |
| 20260507000517 | 47 | 317 | 0.9 | 3.5 | 0.01 | 0.73 | 0.03 | 94 | 1008.5 |
| 20260507000110 | 47 | 307 | 0.0 | 3.5 | 0.01 | 0.73 | 0.03 | 94 | 1008.6 |
| 20260506235509 | 47 | 311 | 0.9 | 2.6 | 0.01 | 0.82 | 0.03 | 94 | 1008.6 |
| 20260506235011 | 47 | 291 | 0.0 | 2.6 | 0.01 | 0.82 | 0.03 | 94 | 1008.6 |
| 20260506234508 | 47 | 336 | 0.0 | 3.5 | 0.01 | 0.82 | 0.03 | 94 | 1008.6 |
| 20260506234008 | 47 | 300 | 0.9 | 3.5 | 0.02 | 0.82 | 0.03 | 94 | 1008.6 |
| 20260506233508 | 47 | 251 | 0.9 | 3.5 | 0.02 | 0.82 | 0.03 | 94 | 1008.6 |
| 20260506233006 | 47 | 319 | 0.0 | 2.6 | 0.02 | 0.82 | 0.03 | 94 | 1008.6 |
| 20260506232505 | 47 | 319 | 0.9 | 2.6 | 0.02 | 0.82 | 0.03 | 94 | 1008.6 |
| 20260506232007 | 47 | 318 | 0.0 | 1.7 | 0.03 | 0.82 | 0.03 | 94 | 1008.5 |
| 20260506231505 | 47 | 315 | 0.0 | 2.6 | 0.03 | 0.82 | 0.03 | 94 | 1008.5 |
| 20260506231004 | 47 | 315 | 0.9 | 2.6 | 0.02 | 0.81 | 0.02 | 94 | 1008.5 |
| 20260506230514 | 47 | 315 | 0.0 | 1.7 | 0.02 | 0.81 | 0.02 | 94 | 1008.5 |
| 20260506230002 | 47 | 315 | 0.0 | 2.6 | 0.02 | 0.81 | 0.02 | 94 | 1008.5 |
| 20260506225605 | 47 | 315 | 0.9 | 2.6 | 0.03 | 0.87 | 0.02 | 94 | 1008.4 |
| 20260506225059 | 47 | 313 | 0.0 | 1.7 | 0.03 | 0.87 | 0.02 | 94 | 1008.4 |
| 20260506224557 | 47 | 313 | 0.9 | 1.7 | 0.03 | 0.87 | 0.02 | 94 | 1008.5 |
| 20260506224055 | 47 | 312 | 0.9 | 1.7 | 0.02 | 0.87 | 0.02 | 94 | 1008.5 |
| 20260506223557 | 47 | 312 | 0.0 | 0.9 | 0.03 | 0.87 | 0.02 | 94 | 1008.5 |
| 20260506223058 | 47 | 312 | 0.0 | 1.7 | 0.03 | 0.87 | 0.02 | 94 | 1008.5 |
| 20260506222551 | 47 | 312 | 0.0 | 1.7 | 0.02 | 0.86 | 0.01 | 94 | 1008.4 |
| 20260506222049 | 47 | 315 | 0.0 | 2.6 | 0.02 | 0.85 | 0.00 | 94 | 1008.4 |
| 20260506221547 | 47 | 315 | 0.0 | 2.6 | 0.02 | 0.85 | 0.00 | 94 | 1008.4 |
| 20260506221047 | 47 | 315 | 0.0 | 2.6 | 0.02 | 0.85 | 0.00 | 94 | 1008.4 |
| 20260506220545 | 47 | 266 | 0.0 | 3.5 | 0.02 | 0.85 | 0.00 | 94 | 1008.3 |
| 20260506220043 | 47 | 341 | 0.0 | 1.7 | 0.02 | 0.85 | 0.00 | 94 | 1008.3 |
| 20260506215543 | 47 | 341 | 0.0 | 3.5 | 0.02 | 0.85 | 0.84 | 94 | 1008.2 |
| 20260506215044 | 47 | 341 | 0.9 | 3.5 | 0.02 | 0.85 | 0.84 | 94 | 1008.2 |
| 20260506214544 | 47 | 265 | 0.0 | 1.7 | 0.02 | 0.85 | 0.84 | 94 | 1008.1 |
| 20260506214042 | 47 | 323 | 0.0 | 1.7 | 0.02 | 0.85 | 0.84 | 94 | 1008.1 |
| 20260506213543 | 47 | 323 | 0.0 | 1.7 | 0.01 | 0.84 | 0.83 | 94 | 1008.1 |
| 20260506213040 | 47 | 323 | 0.0 | 1.7 | 0.01 | 0.84 | 0.83 | 94 | 1008.0 |
| 20260506212541 | 47 | 323 | 0.0 | 1.7 | 0.01 | 0.84 | 0.83 | 94 | 1008.0 |
| 20260506212040 | 47 | 323 | 0.0 | 1.7 | 0.01 | 0.84 | 0.83 | 94 | 1008.0 |
| 20260506211539 | 47 | 324 | 0.0 | 1.7 | 0.01 | 0.84 | 0.83 | 94 | 1007.9 |
| 20260506211039 | 47 | 323 | 0.0 | 2.6 | 0.01 | 0.84 | 0.83 | 94 | 1007.9 |
| 20260506210539 | 47 | 22 | 0.0 | 2.6 | 0.00 | 0.83 | 0.83 | 94 | 1007.9 |
| 20260506210040 | 47 | 22 | 0.0 | 2.6 | 0.00 | 0.83 | 0.83 | 94 | 1007.8 |
| 20260506205538 | 47 | 25 | 0.0 | 2.6 | 0.00 | 0.83 | 0.83 | 94 | 1007.7 |
| 20260506205038 | 47 | 22 | 0.0 | 1.7 | 0.00 | 0.83 | 0.83 | 94 | 1007.8 |
| 20260506204548 | 47 | 22 | 0.0 | 0.9 | 0.00 | 0.83 | 0.83 | 94 | 1007.8 |
| 20260506204038 | 47 | 22 | 0.0 | 2.6 | 0.00 | 0.83 | 0.83 | 94 | 1007.8 |
| 20260506203533 | 47 | 22 | 0.0 | 2.6 | 0.00 | 0.83 | 0.83 | 94 | 1007.7 |
| 20260506203033 | 47 | 22 | 0.0 | 2.6 | 0.00 | 0.83 | 0.83 | 94 | 1007.7 |
| 20260506202533 | 47 | 22 | 0.9 | 2.6 | 0.00 | 0.83 | 0.83 | 94 | 1007.8 |
| 20260506202033 | 47 | 22 | 0.0 | 4.3 | 0.00 | 0.83 | 0.83 | 94 | 1007.7 |
| 20260506201535 | 47 | 22 | 1.7 | 4.3 | 0.00 | 0.83 | 0.83 | 94 | 1007.7 |
| 20260506201031 | 47 | 271 | 0.0 | 2.6 | 0.00 | 0.83 | 0.83 | 94 | 1007.6 |
| 20260506200531 | 47 | 270 | 0.0 | 4.3 | 0.00 | 0.83 | 0.83 | 94 | 1007.6 |
| 20260506200033 | 47 | 333 | 0.0 | 4.3 | 0.00 | 0.83 | 0.83 | 94 | 1007.6 |
| 20260506195530 | 47 | 31 | 0.0 | 2.6 | 0.00 | 0.83 | 0.83 | 94 | 1007.5 |
| 20260506195033 | 47 | 355 | 0.0 | 2.6 | 0.00 | 0.83 | 0.83 | 94 | 1007.4 |
| 20260506194530 | 47 | 328 | 0.0 | 1.7 | 0.00 | 0.83 | 0.83 | 94 | 1007.5 |
| 20260506194029 | 47 | 296 | 0.0 | 2.6 | 0.01 | 0.83 | 0.83 | 94 | 1007.5 |
| 20260506193528 | 47 | 296 | 0.0 | 2.6 | 0.01 | 0.83 | 0.83 | 94 | 1007.5 |
| 20260506193028 | 47 | 311 | 0.0 | 2.6 | 0.01 | 0.83 | 0.83 | 94 | 1007.4 |
| 20260506192528 | 47 | 311 | 0.0 | 2.6 | 0.01 | 0.83 | 0.83 | 94 | 1007.4 |
| 20260506192027 | 47 | 310 | 0.0 | 1.7 | 0.01 | 0.83 | 0.83 | 94 | 1007.3 |
| 20260506191527 | 47 | 310 | 0.0 | 1.7 | 0.01 | 0.83 | 0.83 | 94 | 1007.2 |
| 20260506191025 | 47 | 310 | 0.0 | 1.7 | 0.01 | 0.83 | 0.83 | 94 | 1007.1 |
| 20260506190626 | 47 | 310 | 0.0 | 1.7 | 0.01 | 0.83 | 0.83 | 94 | 1007.1 |
| 20260506190023 | 47 | 309 | 0.0 | 1.7 | 0.01 | 0.83 | 0.83 | 94 | 1007.1 |
| 20260506185523 | 47 | 309 | 0.0 | 1.7 | 0.01 | 0.83 | 0.83 | 94 | 1007.0 |
| 20260506185023 | 47 | 308 | 0.0 | 1.7 | 0.01 | 0.83 | 0.83 | 93 | 1006.9 |
| 20260506184522 | 47 | 309 | 0.0 | 2.6 | 0.01 | 0.83 | 0.83 | 93 | 1006.8 |
| 20260506184022 | 47 | 308 | 0.9 | 3.5 | 0.00 | 0.83 | 0.82 | 93 | 1006.7 |
| 20260506183521 | 47 | 346 | 0.9 | 3.5 | 0.01 | 0.83 | 0.82 | 93 | 1006.7 |
| 20260506183021 | 47 | 38 | 0.0 | 2.6 | 0.01 | 0.83 | 0.82 | 93 | 1006.7 |
| 20260506182519 | 47 | 9 | 0.9 | 2.6 | 0.01 | 0.83 | 0.82 | 93 | 1006.6 |
| 20260506182019 | 47 | 31 | 0.0 | 2.6 | 0.02 | 0.83 | 0.82 | 94 | 1006.6 |
| 20260506181525 | 47 | 31 | 0.0 | 2.6 | 0.02 | 0.83 | 0.82 | 94 | 1006.6 |
| 20260506181021 | 47 | 50 | 0.0 | 2.6 | 0.02 | 0.83 | 0.82 | 94 | 1006.5 |
| 20260506180521 | 47 | 50 | 0.9 | 3.5 | 0.02 | 0.83 | 0.82 | 93 | 1006.5 |
| 20260506180017 | 47 | 18 | 0.9 | 4.3 | 0.02 | 0.83 | 0.82 | 93 | 1006.5 |
| 20260506175516 | 47 | 19 | 1.7 | 4.3 | 0.02 | 0.83 | 0.82 | 93 | 1006.4 |
| 20260506175015 | 48 | 347 | 1.7 | 2.6 | 0.03 | 0.83 | 0.82 | 93 | 1006.2 |
| 20260506174515 | 48 | 346 | 0.9 | 2.6 | 0.03 | 0.83 | 0.82 | 93 | 1006.2 |
| 20260506174020 | 48 | 344 | 0.9 | 2.6 | 0.04 | 0.83 | 0.82 | 93 | 1006.2 |
| 20260506173515 | 48 | 321 | 0.9 | 2.6 | 0.04 | 0.82 | 0.81 | 93 | 1006.1 |
| 20260506173015 | 48 | 35 | 0.9 | 2.6 | 0.05 | 0.82 | 0.81 | 93 | 1006.1 |
| 20260506172514 | 48 | 35 | 0.9 | 3.5 | 0.06 | 0.82 | 0.81 | 93 | 1006.2 |
| 20260506172014 | 48 | 51 | 0.9 | 3.5 | 0.05 | 0.81 | 0.80 | 93 | 1006.2 |
| 20260506171522 | 48 | 37 | 0.9 | 2.6 | 0.06 | 0.81 | 0.80 | 93 | 1006.1 |
| 20260506171114 | 48 | 41 | 0.9 | 3.5 | 0.06 | 0.81 | 0.80 | 93 | 1006.2 |
| 20260506170512 | 48 | 41 | 0.9 | 3.5 | 0.06 | 0.81 | 0.80 | 93 | 1006.1 |
| 20260506170014 | 48 | 16 | 0.0 | 0.9 | 0.06 | 0.80 | 0.80 | 93 | 1006.1 |
| 20260506165512 | 48 | 16 | 0.0 | 1.7 | 0.06 | 0.80 | 0.80 | 93 | 1006.2 |
| 20260506165013 | 48 | 16 | 0.0 | 2.6 | 0.05 | 0.80 | 0.79 | 93 | 1006.2 |
| 20260506164511 | 48 | 16 | 0.0 | 3.5 | 0.04 | 0.79 | 0.78 | 93 | 1006.1 |
| 20260506164013 | 48 | 17 | 1.7 | 3.5 | 0.04 | 0.79 | 0.78 | 93 | 1006.0 |
| 20260506163513 | 48 | 15 | 0.9 | 2.6 | 0.03 | 0.78 | 0.77 | 93 | 1006.0 |
| 20260506163011 | 48 | 13 | 0.9 | 2.6 | 0.03 | 0.77 | 0.76 | 93 | 1006.0 |
| 20260506162512 | 48 | 11 | 0.0 | 4.3 | 0.02 | 0.76 | 0.76 | 93 | 1006.0 |
| 20260506162010 | 48 | 11 | 1.7 | 4.3 | 0.03 | 0.76 | 0.76 | 94 | 1006.1 |
| 20260506161511 | 48 | 324 | 0.9 | 2.6 | 0.03 | 0.76 | 0.75 | 94 | 1006.1 |
| 20260506161010 | 48 | 324 | 0.9 | 2.6 | 0.03 | 0.76 | 0.75 | 94 | 1006.0 |
| 20260506160511 | 48 | 26 | 0.9 | 2.6 | 0.03 | 0.75 | 0.74 | 94 | 1006.0 |
| 20260506160010 | 48 | 27 | 0.9 | 3.5 | 0.04 | 0.75 | 0.74 | 94 | 1006.0 |
| 20260506155508 | 48 | 21 | 0.9 | 3.5 | 0.04 | 0.75 | 0.74 | 93 | 1006.0 |
| 20260506155010 | 48 | 350 | 0.9 | 2.6 | 0.04 | 0.75 | 0.74 | 93 | 1006.0 |
| 20260506154508 | 48 | 19 | 0.9 | 2.6 | 0.05 | 0.75 | 0.74 | 93 | 1006.0 |
| 20260506154007 | 48 | 29 | 0.0 | 2.6 | 0.05 | 0.75 | 0.74 | 93 | 1006.0 |
| 20260506153509 | 48 | 11 | 0.9 | 2.6 | 0.05 | 0.75 | 0.74 | 93 | 1006.0 |
| 20260506153007 | 48 | 11 | 0.0 | 2.6 | 0.04 | 0.74 | 0.73 | 93 | 1005.9 |
| 20260506152508 | 48 | 9 | 0.9 | 2.6 | 0.04 | 0.74 | 0.73 | 93 | 1005.9 |
| 20260506152007 | 48 | 11 | 0.9 | 5.2 | 0.03 | 0.73 | 0.72 | 93 | 1005.9 |
| 20260506151507 | 48 | 5 | 1.7 | 5.2 | 0.02 | 0.72 | 0.72 | 93 | 1006.0 |
| 20260506151010 | 48 | 355 | 1.7 | 4.3 | 0.02 | 0.72 | 0.72 | 93 | 1006.0 |
| 20260506150509 | 48 | 19 | 1.7 | 4.3 | 0.02 | 0.72 | 0.71 | 93 | 1006.0 |
| 20260506150010 | 48 | 355 | 1.7 | 4.3 | 0.01 | 0.71 | 0.70 | 93 | 1005.9 |
| 20260506145505 | 48 | 333 | 0.9 | 2.6 | 0.01 | 0.71 | 0.70 | 93 | 1005.9 |
| 20260506145005 | 49 | 330 | 0.9 | 6.1 | 0.01 | 0.71 | 0.70 | 93 | 1005.9 |
| 20260506144505 | 49 | 20 | 0.0 | 2.6 | 0.00 | 0.70 | 0.69 | 93 | 1005.9 |
| 20260506144005 | 49 | 351 | 0.0 | 2.6 | 0.00 | 0.70 | 0.69 | 93 | 1005.8 |
| 20260506143505 | 49 | 26 | 0.9 | 3.5 | 0.00 | 0.70 | 0.69 | 93 | 1005.8 |
| 20260506143012 | 48 | 26 | 1.7 | 3.5 | 0.00 | 0.70 | 0.69 | 93 | 1005.7 |
| 20260506142503 | 49 | 5 | 1.7 | 3.5 | 0.00 | 0.70 | 0.69 | 93 | 1005.7 |
| 20260506142002 | 48 | 22 | 1.7 | 3.5 | 0.00 | 0.70 | 0.69 | 93 | 1005.6 |
| 20260506141502 | 48 | 30 | 0.9 | 3.5 | 0.00 | 0.70 | 0.69 | 93 | 1005.7 |
| 20260506141002 | 48 | 34 | 1.7 | 3.5 | 0.00 | 0.70 | 0.69 | 93 | 1005.7 |
| 20260506140502 | 48 | 24 | 0.9 | 3.5 | 0.00 | 0.70 | 0.69 | 93 | 1005.7 |
| 20260506140112 | 48 | 15 | 0.9 | 4.3 | 0.00 | 0.70 | 0.69 | 93 | 1005.8 |
| 20260506135600 | 48 | 13 | 1.7 | 5.2 | 0.00 | 0.70 | 0.69 | 93 | 1005.7 |
| 20260506135100 | 48 | 12 | 2.6 | 5.2 | 0.00 | 0.70 | 0.69 | 93 | 1005.7 |
| 20260506134600 | 48 | 355 | 1.7 | 3.5 | 0.00 | 0.70 | 0.69 | 93 | 1005.7 |
| 20260506134500 | 49 | 5 | 1.7 | 3.5 | 0.00 | 0.70 | 0.69 | 93 | 1005.6 |
| 20260506134100 | 48 | 57 | 0.9 | 5.2 | 0.00 | 0.70 | 0.69 | 93 | 1005.7 |
| 20260506133600 | 48 | 27 | 1.7 | 5.2 | 0.00 | 0.70 | 0.69 | 93 | 1005.7 |
| 20260506133101 | 48 | 65 | 1.7 | 4.3 | 0.00 | 0.70 | 0.69 | 93 | 1005.7 |
| 20260506132605 | 48 | 82 | 1.7 | 4.3 | 0.00 | 0.70 | 0.69 | 93 | 1005.7 |
| 20260506132100 | 48 | 32 | 1.7 | 4.3 | 0.00 | 0.70 | 0.69 | 93 | 1005.6 |
| 20260506131601 | 48 | 28 | 1.7 | 5.2 | 0.00 | 0.70 | 0.69 | 93 | 1005.6 |
| 20260506131100 | 48 | 19 | 3.5 | 5.2 | 0.00 | 0.70 | 0.69 | 93 | 1005.5 |
| 20260506130602 | 48 | 13 | 2.6 | 5.2 | 0.00 | 0.70 | 0.69 | 93 | 1005.5 |
| 20260506130133 | 48 | 30 | 1.7 | 4.3 | 0.00 | 0.70 | 0.69 | 93 | 1005.5 |
| 20260506125602 | 48 | 72 | 1.7 | 3.5 | 0.00 | 0.70 | 0.69 | 94 | 1005.6 |
| 20260506125058 | 48 | 32 | 0.9 | 3.5 | 0.00 | 0.70 | 0.69 | 94 | 1005.6 |
| 20260506124558 | 48 | 9 | 0.9 | 3.5 | 0.00 | 0.70 | 0.69 | 94 | 1005.5 |
| 20260506124058 | 48 | 360 | 0.9 | 5.2 | 0.00 | 0.70 | 0.69 | 94 | 1005.5 |
| 20260506123559 | 48 | 19 | 1.7 | 4.3 | 0.01 | 0.70 | 0.69 | 94 | 1005.4 |
| 20260506123058 | 48 | 12 | 1.7 | 4.3 | 0.01 | 0.70 | 0.69 | 94 | 1005.3 |
| 20260506122558 | 48 | 28 | 1.7 | 4.3 | 0.01 | 0.70 | 0.69 | 94 | 1005.3 |
| 20260506122058 | 48 | 298 | 1.7 | 4.3 | 0.01 | 0.70 | 0.69 | 94 | 1005.3 |
| 20260506121557 | 48 | 26 | 2.6 | 4.3 | 0.01 | 0.70 | 0.69 | 94 | 1005.2 |
| 20260506121057 | 48 | 19 | 1.7 | 3.5 | 0.01 | 0.70 | 0.69 | 94 | 1005.2 |
| 20260506120556 | 48 | 26 | 0.9 | 3.5 | 0.02 | 0.70 | 0.69 | 94 | 1005.2 |
| 20260506120059 | 48 | 11 | 1.7 | 4.3 | 0.02 | 0.70 | 0.69 | 94 | 1005.0 |
| 20260506115556 | 48 | 11 | 0.9 | 4.3 | 0.02 | 0.70 | 0.69 | 94 | 1005.1 |
| 20260506115054 | 48 | 5 | 0.9 | 4.3 | 0.02 | 0.70 | 0.69 | 94 | 1005.0 |
| 20260506114556 | 48 | 5 | 0.9 | 4.3 | 0.02 | 0.70 | 0.69 | 94 | 1005.0 |
| 20260506114053 | 47 | 17 | 1.7 | 5.2 | 0.02 | 0.70 | 0.69 | 94 | 1004.9 |
| 20260506113553 | 48 | 13 | 1.7 | 5.2 | 0.02 | 0.69 | 0.69 | 94 | 1005.0 |
| 20260506113103 | 48 | 5 | 1.7 | 3.5 | 0.02 | 0.69 | 0.69 | 93 | 1005.0 |
| 20260506112552 | 48 | 283 | 0.9 | 4.3 | 0.02 | 0.69 | 0.69 | 93 | 1005.0 |
| 20260506112054 | 48 | 17 | 0.9 | 2.6 | 0.02 | 0.69 | 0.69 | 93 | 1005.1 |
| 20260506111553 | 48 | 17 | 0.9 | 3.5 | 0.02 | 0.69 | 0.69 | 93 | 1005.1 |
| 20260506111052 | 48 | 28 | 0.9 | 3.5 | 0.02 | 0.69 | 0.69 | 94 | 1005.2 |
| 20260506110551 | 48 | 35 | 0.9 | 4.3 | 0.01 | 0.69 | 0.68 | 93 | 1005.1 |
| 20260506110059 | 48 | 5 | 0.9 | 4.3 | 0.01 | 0.69 | 0.68 | 93 | 1005.0 |
| 20260506105551 | 48 | 17 | 1.7 | 5.2 | 0.00 | 0.68 | 0.67 | 93 | 1005.0 |
| 20260506105050 | 48 | 5 | 1.7 | 5.2 | 0.01 | 0.68 | 0.67 | 93 | 1004.9 |
| 20260506104605 | 48 | 19 | 2.6 | 4.3 | 0.01 | 0.68 | 0.67 | 93 | 1004.9 |
| 20260506104050 | 48 | 28 | 1.7 | 4.3 | 0.01 | 0.68 | 0.67 | 93 | 1004.9 |
| 20260506103550 | 48 | 27 | 1.7 | 6.1 | 0.01 | 0.68 | 0.67 | 93 | 1004.9 |
| 20260506103051 | 47 | 14 | 3.5 | 6.1 | 0.01 | 0.68 | 0.67 | 94 | 1004.8 |
| 20260506102550 | 47 | 38 | 3.5 | 7.8 | 0.01 | 0.68 | 0.67 | 94 | 1004.8 |
| 20260506102048 | 48 | 28 | 2.6 | 5.2 | 0.02 | 0.68 | 0.67 | 94 | 1004.8 |
| 20260506101556 | 48 | 34 | 2.6 | 5.2 | 0.02 | 0.68 | 0.67 | 94 | 1004.7 |
| 20260506101049 | 47 | 28 | 1.7 | 4.3 | 0.02 | 0.68 | 0.67 | 94 | 1004.7 |
| 20260506100550 | 47 | 9 | 1.7 | 5.2 | 0.02 | 0.68 | 0.67 | 93 | 1004.6 |
| 20260506100048 | 47 | 350 | 2.6 | 5.2 | 0.02 | 0.68 | 0.67 | 93 | 1004.6 |
| 20260506095550 | 47 | 334 | 1.7 | 3.5 | 0.02 | 0.68 | 0.67 | 93 | 1004.6 |
| 20260506095047 | 47 | 360 | 1.7 | 4.3 | 0.01 | 0.67 | 0.66 | 93 | 1004.6 |
| 20260506094555 | 47 | 13 | 1.7 | 4.3 | 0.01 | 0.67 | 0.66 | 93 | 1004.6 |
| 20260506094047 | 47 | 32 | 1.7 | 4.3 | 0.01 | 0.67 | 0.66 | 94 | 1004.6 |
| 20260506093548 | 47 | 60 | 0.9 | 5.2 | 0.01 | 0.67 | 0.66 | 93 | 1004.5 |
| 20260506093053 | 47 | 32 | 1.7 | 5.2 | 0.01 | 0.67 | 0.66 | 93 | 1004.5 |
| 20260506092546 | 47 | 21 | 2.6 | 5.2 | 0.01 | 0.67 | 0.66 | 93 | 1004.4 |
| 20260506092046 | 47 | 20 | 1.7 | 5.2 | 0.00 | 0.66 | 0.65 | 93 | 1004.4 |
| 20260506091545 | 47 | 36 | 2.6 | 5.2 | 0.00 | 0.66 | 0.65 | 93 | 1004.4 |
| 20260506091047 | 47 | 19 | 1.7 | 4.3 | 0.00 | 0.66 | 0.65 | 93 | 1004.3 |
| 20260506090550 | 47 | 73 | 0.9 | 3.5 | 0.00 | 0.66 | 0.65 | 93 | 1004.3 |
| 20260506090045 | 48 | 9 | 1.7 | 3.5 | 0.00 | 0.66 | 0.65 | 93 | 1004.3 |
| 20260506085544 | 47 | 59 | 0.9 | 4.3 | 0.00 | 0.66 | 0.65 | 93 | 1004.2 |
| 20260506085044 | 47 | 18 | 1.7 | 5.2 | 0.00 | 0.66 | 0.65 | 93 | 1004.1 |
| 20260506084548 | 47 | 339 | 1.7 | 4.3 | 0.00 | 0.66 | 0.65 | 93 | 1004.1 |
| 20260506084044 | 47 | 13 | 1.7 | 5.2 | 0.00 | 0.66 | 0.65 | 93 | 1004.1 |
| 20260506083542 | 47 | 16 | 1.7 | 7.0 | 0.00 | 0.66 | 0.65 | 93 | 1004.0 |
| 20260506083041 | 47 | 13 | 2.6 | 7.0 | 0.00 | 0.66 | 0.65 | 93 | 1004.0 |
| 20260506082542 | 47 | 35 | 1.7 | 5.2 | 0.00 | 0.66 | 0.65 | 93 | 1004.0 |
| 20260506082044 | 47 | 28 | 2.6 | 6.1 | 0.00 | 0.66 | 0.65 | 93 | 1004.0 |
| 20260506081539 | 47 | 36 | 3.5 | 7.0 | 0.00 | 0.66 | 0.65 | 93 | 1003.9 |
| 20260506081037 | 47 | 25 | 2.6 | 7.0 | 0.00 | 0.66 | 0.65 | 93 | 1003.9 |
| 20260506080536 | 48 | 15 | 2.6 | 5.2 | 0.00 | 0.66 | 0.65 | 93 | 1003.9 |
| 20260506073035 | 48 | 22 | 1.7 | 4.3 | 0.01 | 0.66 | 0.65 | 94 | 1003.7 |
| 20260506072531 | 48 | 32 | 2.6 | 4.3 | 0.01 | 0.66 | 0.65 | 94 | 1003.8 |
| 20260506072030 | 48 | 32 | 1.7 | 4.3 | 0.02 | 0.66 | 0.65 | 94 | 1003.8 |
| 20260506071530 | 48 | 20 | 1.7 | 4.3 | 0.02 | 0.66 | 0.65 | 94 | 1003.8 |
| 20260506071028 | 48 | 17 | 1.7 | 4.3 | 0.02 | 0.66 | 0.65 | 94 | 1003.8 |
| 20260506070529 | 48 | 42 | 1.7 | 5.2 | 0.02 | 0.66 | 0.65 | 94 | 1003.7 |
| 20260506062022 | 48 | 36 | 0.9 | 5.2 | 0.05 | 0.65 | 0.64 | 94 | 1003.6 |
| 20260506061522 | 48 | 22 | 2.6 | 5.2 | 0.05 | 0.65 | 0.64 | 94 | 1003.5 |
| 20260506061021 | 48 | 28 | 1.7 | 4.3 | 0.06 | 0.65 | 0.64 | 94 | 1003.5 |
| 20260506060524 | 48 | 27 | 1.7 | 4.3 | 0.06 | 0.65 | 0.64 | 94 | 1003.5 |
| 20260506051015 | 49 | 80 | 0.9 | 3.5 | 0.05 | 0.59 | 0.57 | 94 | 1003.4 |
| 20260506050521 | 49 | 44 | 0.9 | 4.3 | 0.06 | 0.59 | 0.57 | 94 | 1003.4 |
| 20260506045011 | 49 | 32 | 1.7 | 4.3 | 0.08 | 0.56 | 0.56 | 94 | 1003.3 |
| 20260506044511 | 49 | 53 | 0.9 | 4.3 | 0.08 | 0.56 | 0.56 | 94 | 1003.3 |
| 20260506044019 | 49 | 111 | 0.9 | 5.2 | 0.09 | 0.56 | 0.56 | 94 | 1003.3 |
| 20260506043510 | 49 | 46 | 1.7 | 4.3 | 0.09 | 0.56 | 0.56 | 94 | 1003.3 |
| 20260506043010 | 49 | 66 | 0.9 | 4.3 | 0.11 | 0.56 | 0.56 | 94 | 1003.3 |
| 20260506042509 | 49 | 70 | 0.9 | 4.3 | 0.11 | 0.56 | 0.55 | 94 | 1003.3 |
| 20260506042012 | 50 | 95 | 0.9 | 3.5 | 0.11 | 0.55 | 0.54 | 94 | 1003.4 |
| 20260506041517 | 50 | 111 | 0.9 | 3.5 | 0.11 | 0.54 | 0.54 | 94 | 1003.4 |
| 20260506041007 | 50 | 107 | 0.0 | 3.5 | 0.11 | 0.54 | 0.53 | 94 | 1003.4 |
| 20260506040510 | 50 | 104 | 0.9 | 3.5 | 0.12 | 0.53 | 0.52 | 94 | 1003.4 |
| 20260506040006 | 50 | 55 | 0.0 | 2.6 | 0.11 | 0.51 | 0.50 | 94 | 1003.4 |
| 20260506035506 | 50 | 77 | 0.0 | 3.5 | 0.11 | 0.50 | 0.50 | 94 | 1003.4 |
| 20260506035006 | 50 | 90 | 0.9 | 3.5 | 0.11 | 0.50 | 0.49 | 94 | 1003.4 |
| 20260506034508 | 50 | 92 | 0.0 | 2.6 | 0.11 | 0.49 | 0.48 | 94 | 1003.4 |
| 20260506034004 | 50 | 69 | 0.9 | 3.5 | 0.11 | 0.48 | 0.47 | 94 | 1003.4 |
| 20260506033505 | 50 | 82 | 0.9 | 3.5 | 0.10 | 0.46 | 0.46 | 94 | 1003.4 |
| 20260506033004 | 50 | 73 | 0.0 | 2.6 | 0.10 | 0.46 | 0.45 | 94 | 1003.5 |
| 20260506032503 | 50 | 73 | 0.9 | 3.5 | 0.10 | 0.45 | 0.44 | 94 | 1003.5 |
| 20260506032003 | 50 | 65 | 0.9 | 3.5 | 0.10 | 0.44 | 0.43 | 94 | 1003.6 |
| 20260506031503 | 50 | 121 | 0.9 | 4.3 | 0.10 | 0.43 | 0.43 | 94 | 1003.7 |
| 20260506031002 | 50 | 122 | 0.0 | 1.7 | 0.10 | 0.43 | 0.42 | 94 | 1003.7 |
| 20260506030501 | 50 | 122 | 0.0 | 1.7 | 0.09 | 0.41 | 0.40 | 94 | 1003.8 |
| 20260506030000 | 50 | 122 | 0.0 | 3.5 | 0.09 | 0.40 | 0.39 | 94 | 1003.8 |
| 20260506025601 | 50 | 122 | 0.9 | 3.5 | 0.09 | 0.39 | 0.39 | 94 | 1003.9 |
| 20260506025100 | 50 | 57 | 0.9 | 2.6 | 0.09 | 0.39 | 0.38 | 94 | 1003.9 |
| 20260506024559 | 50 | 82 | 0.0 | 1.7 | 0.09 | 0.38 | 0.37 | 93 | 1004.0 |
| 20260506024058 | 50 | 82 | 0.0 | 1.7 | 0.09 | 0.37 | 0.36 | 93 | 1004.0 |
| 20260506023558 | 50 | 83 | 0.0 | 2.6 | 0.09 | 0.36 | 0.35 | 93 | 1004.1 |
| 20260506023101 | 50 | 83 | 0.0 | 2.6 | 0.09 | 0.35 | 0.35 | 94 | 1004.1 |
| 20260506022555 | 50 | 94 | 0.0 | 2.6 | 0.09 | 0.35 | 0.34 | 94 | 1004.1 |
| 20260506022054 | 51 | 94 | 0.0 | 2.6 | 0.09 | 0.34 | 0.33 | 94 | 1004.2 |
| 20260506021557 | 51 | 103 | 0.0 | 2.6 | 0.08 | 0.33 | 0.32 | 94 | 1004.2 |
| 20260506021056 | 51 | 103 | 0.0 | 1.7 | 0.08 | 0.32 | 0.31 | 94 | 1004.3 |
| 20260506020553 | 51 | 103 | 0.0 | 1.7 | 0.08 | 0.31 | 0.31 | 94 | 1004.3 |
| 20260506020053 | 51 | 103 | 0.0 | 1.7 | 0.09 | 0.31 | 0.31 | 94 | 1004.4 |
| 20260506015556 | 51 | 103 | 0.0 | 0.9 | 0.08 | 0.31 | 0.30 | 94 | 1004.3 |